カタログに戻る

STARLINK-32419

運用中通信VLEO
NORAD 61637·PAYLOAD·🇺🇸 United States

打ち上げ Oct 23, 2024 から Cape Canaveral Space Force Station

Loading…

次のパス (今後24時間)

TLE

最新Source: CelesTrak SupGP

元期: Sep 14, 2026, 21:26 UTC

1 61637C 24191S   26257.89354167 -.00019335  00000+0 -70031-3 0  2578
2 61637  42.9995 166.1434 0001373 264.0938 352.3563 15.27588178    14

AllMySatでSTARLINK-32419をリアルタイム追跡

Download on the App Store